This is the latest recevied weather packets stored in our database for station/object N3NDE. If no packets are shown the sender has not sent any weather packets the latest 1 day(s).
| Time | Temp. | Humidity | Pressure | Rain* | Wind** | Luminosity | Snow |
|---|---|---|---|---|---|---|---|
| 1778071151 | 0° C | 89% | 1017.5 hPa | 0 mm | - | 12 W/m² | - |
| 1778070546 | 0.56° C | 89% | 1017.6 hPa | 0 mm | - | 7 W/m² | - |
| 1778069941 | 0.56° C | 88% | 1017.7 hPa | 0 mm | - | 3 W/m² | - |
| 1778069032 | 1.11° C | 87% | 1017.7 hPa | 0 mm | - | 0 W/m² | - |
| 1778067218 | 1.67° C | 84% | 1017.6 hPa | 0 mm | - | 0 W/m² | - |
| 1778064795 | 1.67° C | 82% | 1017.8 hPa | 0 mm | - | 0 W/m² | - |
| 1778063585 | 1.67° C | 81% | 1017.8 hPa | 0 mm | - | 0 W/m² | - |
| 1778062980 | 1.67° C | 83% | 1017.7 hPa | 0 mm | - | 0 W/m² | - |
| 1778062373 | 1.67° C | 80% | 1017.7 hPa | 0 mm | - | 0 W/m² | - |
| 1778062071 | 2.22° C | 79% | 1017.5 hPa | 0 mm | - | 0 W/m² | - |
| 1778061769 | 2.22° C | 77% | 1017.2 hPa | 0 mm | - | 0 W/m² | - |
| 1778061164 | 2.22° C | 86% | 1017 hPa | 0 mm | - | 0 W/m² | - |
| 1778060559 | 2.22° C | 86% | 1016.7 hPa | 0 mm | - | 0 W/m² | - |
| 1778059954 | 2.22° C | 82% | 1016.4 hPa | 0 mm | - | 0 W/m² | - |
| 1778059652 | 2.22° C | 81% | 1016.5 hPa | 0 mm | - | 0 W/m² | - |
| 1778058744 | 2.22° C | 91% | 1016.3 hPa | 0 mm | - | 0 W/m² | - |
| 1778058138 | 2.22° C | 91% | 1015.9 hPa | 0 mm | - | 0 W/m² | - |
| 1778056319 | 3.89° C | 84% | 1014.8 hPa | 0 mm | - | 0 W/m² | - |
| 1778056016 | 5° C | 83% | 1014.8 hPa | 1.27 mm | - | 0 W/m² | - |
| 1778055711 | 5° C | 90% | 1014.5 hPa | 1.27 mm | - | 0 W/m² | - |
| 1778055107 | 5° C | 91% | 1014.1 hPa | 0 mm | - | 0 W/m² | - |
| 1778054501 | 5° C | 92% | 1013.9 hPa | 0 mm | - | 0 W/m² | - |
| 1778054199 | 5° C | 92% | 1014 hPa | 0 mm | - | 0 W/m² | - |
| 1778053290 | 5° C | 91% | 1014.1 hPa | 0 mm | - | 0 W/m² | - |
| 1778052988 | 5° C | 91% | 1014 hPa | 0 mm | - | 0 W/m² | - |
* Rain latest hour (hover to see other rain measurements)
** Current wind speed in m/s (hover to see current wind gust speed)